Location: Unspecified
(0.0000°N, 0.0000°E)
Time: 16:57:10
(UTC+00:00)

Courier 1B - All Passes

Search period start: 28 November 2014 00:00
Search period end: 08 December 2014 00:00
Orbit: 963 x 1209 km, 28.3° (Epoch: 28 November)

Date Brightness Start Highest point End Pass type
(mag) Time Alt. Az. Time Alt. Az. Time Alt. Az.
28 Nov - 01:34:42 10° NNW 01:39:40 21° NNE 01:44:29 10° ENE visible
28 Nov - 03:27:23 10° NW 03:33:59 76° NNE 03:40:26 10° ESE visible
28 Nov - 05:22:34 10° W 05:28:03 29° SSW 05:33:35 10° SSE visible
28 Nov - 13:06:33 10° SSW 13:11:57 21° SSE 13:17:30 10° ESE daylight
28 Nov - 14:59:02 10° SW 15:06:37 67° SSE 15:14:25 10° ENE daylight
28 Nov - 16:53:55 10° W 17:01:08 40° NNW 17:08:21 10° NE daylight
28 Nov - 18:52:44 10° NW 18:56:19 14° NNW 18:59:52 10° N visible
29 Nov - 00:41:39 10° NNW 00:45:40 16° NNE 00:49:34 10° ENE night (unlit)
29 Nov - 02:33:44 10° NW 02:40:16 53° NNE 02:46:34 10° ESE visible
29 Nov - 04:28:13 10° W 04:34:18 41° SSW 04:40:19 10° SE visible
29 Nov - 06:26:49 10° SW 06:28:56 12° SSW 06:31:04 10° S daylight
29 Nov - 12:13:47 10° S 12:17:50 15° SSE 12:22:00 10° ESE daylight
29 Nov - 14:05:27 10° SW 14:12:39 49° SSE 14:20:08 10° ENE daylight
29 Nov - 15:59:37 10° WSW 16:07:06 54° NNW 16:14:44 10° NE daylight
29 Nov - 17:57:01 10° WNW 18:02:03 18° NNW 18:07:05 10° NNE daylight
29 Nov - 23:48:57 10° N 23:51:33 12° NNE 23:54:06 10° NE night (unlit)
30 Nov - 01:40:11 10° NW 01:46:29 38° NNE 01:52:31 10° E visible
30 Nov - 03:34:04 10° WNW 03:40:35 58° SSW 03:46:56 10° SE visible
30 Nov - 05:31:07 10° WSW 05:34:56 16° SSW 05:38:46 10° SSE daylight
30 Nov - 11:21:53 10° S 11:23:40 11° SSE 11:25:27 10° SE daylight
30 Nov - 13:12:05 10° SW 13:18:42 36° SSE 13:25:36 10° E daylight
30 Nov - 15:05:33 10° WSW 15:13:07 73° NNW 15:20:57 10° NE daylight
30 Nov - 17:01:52 10° WNW 17:07:52 24° NNW 17:13:55 10° NNE daylight
01 Dec - 00:46:44 10° NNW 00:52:37 28° NNE 00:58:14 10° E night (unlit)
01 Dec - 02:40:05 10° WNW 02:46:53 82° SSW 02:53:24 10° ESE visible
01 Dec - 04:36:06 10° WSW 04:41:03 22° SSW 04:45:57 10° SSE visible
01 Dec - 12:18:55 10° SSW 12:24:43 26° SSE 12:30:47 10° E daylight
01 Dec - 14:11:43 10° WSW 14:19:10 84° SSE 14:26:59 10° ENE daylight
01 Dec - 16:07:06 10° W 16:13:45 32° NNW 16:20:33 10° NNE daylight
01 Dec - 18:07:18 10° NNW 18:09:15 11° NNW 18:11:11 10° N visible
01 Dec - 23:53:24 10° NNW 23:58:39 21° NNE 00:03:41 10° ENE night (unlit)
02 Dec - 01:46:13 10° NW 01:53:09 72° NNE 01:59:43 10° ESE visible
02 Dec - 03:41:26 10° W 03:47:14 31° SSW 03:52:53 10° SSE visible
02 Dec - 11:26:00 10° SSW 11:30:43 19° SSE 11:35:36 10° ESE daylight
02 Dec - 13:18:05 10° SW 13:25:16 62° SSE 13:32:50 10° ENE daylight
02 Dec - 15:12:40 10° W 15:19:42 42° NNW 15:27:00 10° NE daylight
02 Dec - 17:10:56 10° NW 17:14:54 15° NNW 17:18:53 10° N daylight
02 Dec - 23:00:14 10° NNW 23:04:34 16° NNE 23:08:46 10° ENE night (unlit)
03 Dec - 00:52:29 10° NW 00:59:22 51° NNE 01:05:51 10° ESE night (unlit)
03 Dec - 02:47:01 10° W 02:53:28 44° SSW 02:59:39 10° SE visible
03 Dec - 04:45:27 10° SW 04:48:01 12° SSW 04:50:34 10° S visible
03 Dec - 10:33:32 10° S 10:36:40 13° SSE 10:39:52 10° SE daylight
03 Dec - 12:24:39 10° SW 12:31:22 45° SSE 12:38:29 10° E daylight
03 Dec - 14:18:30 10° WSW 14:25:43 57° NNW 14:33:17 10° NE daylight
03 Dec - 16:15:30 10° WNW 16:20:38 19° NNW 16:25:51 10° NNE daylight
03 Dec - 22:07:21 10° N 22:10:22 13° NNE 22:13:19 10° NE night (unlit)
03 Dec - 23:58:51 10° NW 00:05:30 38° NNE 00:11:46 10° E night (unlit)
04 Dec - 01:52:48 10° WNW 01:59:43 63° SSW 02:06:16 10° SE visible
04 Dec - 03:49:48 10° WSW 03:54:03 18° SSW 03:58:13 10° SSE visible
04 Dec - 11:31:24 10° SSW 11:37:29 32° SSE 11:43:53 10° E daylight
04 Dec - 13:24:35 10° WSW 13:31:47 77° NNW 13:39:26 10° NE daylight
04 Dec - 15:20:32 10° WNW 15:26:28 25° NNW 15:32:34 10° NNE daylight
04 Dec - 23:05:20 10° NNW 23:11:32 28° NNE 23:17:26 10° E night (unlit)
05 Dec - 00:58:45 10° WNW 01:05:58 88° SSW 01:12:44 10° ESE visible
05 Dec - 02:54:45 10° W 03:00:09 25° SSW 03:05:23 10° SSE visible
05 Dec - 10:38:22 10° SSW 10:43:35 23° SSE 10:49:01 10° ESE daylight
05 Dec - 12:30:53 10° SW 12:37:55 79° SSE 12:45:25 10° ENE daylight
05 Dec - 14:25:57 10° W 14:32:23 33° NNW 14:39:06 10° NE daylight
05 Dec - 16:25:32 10° NW 16:27:49 11° NNW 16:30:07 10° N daylight
05 Dec - 22:11:57 10° NNW 22:17:29 22° NNE 22:22:48 10° ENE night (unlit)
06 Dec - 00:04:50 10° NW 00:12:09 68° NNE 00:19:01 10° ESE night (unlit)
06 Dec - 02:00:03 10° W 02:06:20 34° SSW 02:12:19 10° SE visible
06 Dec - 09:45:38 10° SSW 09:49:38 16° SSE 09:53:46 10° ESE daylight
06 Dec - 11:37:22 10° SW 11:44:05 57° SSE 11:51:15 10° ENE daylight
06 Dec - 13:31:40 10° W 13:38:23 43° NNW 13:45:30 10° NE daylight
06 Dec - 15:29:33 10° NW 15:33:30 15° NNW 15:37:31 10° N daylight
06 Dec - 21:18:43 10° NNW 21:23:19 17° NNE 21:27:47 10° ENE night (unlit)
06 Dec - 23:11:03 10° NW 23:18:17 50° NNE 23:25:05 10° ESE night (unlit)
07 Dec - 01:05:35 10° WNW 01:12:31 49° SSW 01:19:03 10° SE visible
07 Dec - 03:03:43 10° SW 03:07:03 14° SSW 03:10:20 10° S visible
07 Dec - 08:53:35 10° S 08:55:37 11° SSE 08:57:41 10° SE daylight
07 Dec - 10:44:02 10° SW 10:50:17 40° SSE 10:56:53 10° E daylight
07 Dec - 12:37:38 10° WSW 12:44:29 59° NNW 12:51:47 10° NE daylight
07 Dec - 14:34:18 10° WNW 14:39:17 19° NNW 14:44:25 10° NNE daylight
07 Dec - 20:25:49 10° N 20:29:02 13° NNE 20:32:13 10° NE visible
07 Dec - 22:17:23 10° NW 22:24:19 37° NNE 22:30:55 10° E night (unlit)
